• In Kazakhstan
  • List of Countries
  • For 7 days
  • Water Temperature
  • Weather Map
  • News
  • Weather Widgets
  • user-avatar
    Login

    Hourly Weather Selfoss

    Today, 23 September, Monday

    Time Temperature Precipitation Wind Pressure Humidity
    00:00 +10°C° 0 mm 4 mps 747 mmHg 95%
    01:00 +9°C° 0 mm 5 mps 748 mmHg 94%
    02:00 +8°C° 0 mm 5 mps 748 mmHg 93%
    03:00 +8°C° 0 mm 5 mps 748 mmHg 93%
    04:00 +8°C° 0 mm 4 mps 749 mmHg 93%
    05:00 +8°C° 0 mm 4 mps 749 mmHg 93%
    06:00 +10°C° 0 mm 3 mps 749 mmHg 91%
    07:00 +10°C° 0 mm 3 mps 750 mmHg 90%
    08:00 +10°C° 0 mm 3 mps 750 mmHg 89%
    09:00 +11°C° 0 mm 3 mps 750 mmHg 84%
    10:00 +13°C° 0 mm 3 mps 750 mmHg 79%
    11:00 +14°C° 0 mm 3 mps 750 mmHg 75%
    12:00 +15°C° 0.1 mm 2 mps 750 mmHg 77%
    13:00 +14°C° 0.1 mm 2 mps 749 mmHg 79%
    14:00 +14°C° 0.1 mm 1 mps 749 mmHg 82%
    15:00 +14°C° 1 mm 1 mps 749 mmHg 86%
    16:00 +13°C° 1 mm 1 mps 748 mmHg 91%
    17:00 +12°C° 1 mm 0 mps 748 mmHg 96%
    18:00 +12°C° 0.8 mm 0 mps 748 mmHg 96%
    19:00 +12°C° 0.8 mm 0 mps 748 mmHg 96%
    20:00 +12°C° 0.8 mm 0 mps 747 mmHg 96%
    21:00 +12°C° 0.3 mm 0 mps 747 mmHg 96%
    22:00 +13°C° 0.3 mm 1 mps 747 mmHg 96%
    23:00 +13°C° 0.3 mm 1 mps 747 mmHg 95%

    Tomorrow, 24 September, Tuesday

    Time Temperature Precipitation Wind Pressure Humidity
    00:00 +13°C° 0.1 mm 1 mps 746 mmHg 95%
    01:00 +13°C° 0.1 mm 1 mps 746 mmHg 95%
    02:00 +13°C° 0.1 mm 1 mps 746 mmHg 95%
    03:00 +13°C° 0.5 mm 1 mps 745 mmHg 95%
    04:00 +13°C° 0.5 mm 1 mps 745 mmHg 95%
    05:00 +13°C° 0.5 mm 1 mps 745 mmHg 96%
    06:00 +13°C° 0.7 mm 2 mps 745 mmHg 95%
    07:00 +13°C° 0.7 mm 2 mps 745 mmHg 94%
    08:00 +12°C° 0.7 mm 3 mps 745 mmHg 94%
    09:00 +12°C° 0.1 mm 4 mps 745 mmHg 93%
    10:00 +12°C° 0.1 mm 4 mps 745 mmHg 92%
    11:00 +13°C° 0.1 mm 5 mps 746 mmHg 90%
    12:00 +13°C° 0 mm 4 mps 745 mmHg 86%
    13:00 +14°C° 0 mm 4 mps 745 mmHg 82%
    14:00 +14°C° 0 mm 4 mps 745 mmHg 77%
    15:00 +14°C° 0.2 mm 3 mps 745 mmHg 81%
    16:00 +13°C° 0.2 mm 3 mps 744 mmHg 84%
    17:00 +13°C° 0.2 mm 2 mps 744 mmHg 88%
    18:00 +12°C° 0.2 mm 3 mps 744 mmHg 87%
    19:00 +12°C° 0.2 mm 4 mps 744 mmHg 86%
    20:00 +11°C° 0.2 mm 4 mps 744 mmHg 85%
    21:00 +12°C° 0.2 mm 5 mps 744 mmHg 85%
    22:00 +11°C° 0.2 mm 6 mps 743 mmHg 84%
    23:00 +11°C° 0.2 mm 6 mps 743 mmHg 83%

    Day after tomorrow, 25 September, Wednesday

    Time Temperature Precipitation Wind Pressure Humidity
    00:00 +11°C° 0.1 mm 6 mps 743 mmHg 85%
    01:00 +10°C° 0.1 mm 5 mps 743 mmHg 87%
    02:00 +11°C° 0.1 mm 4 mps 743 mmHg 89%
    03:00 +11°C° 0.4 mm 4 mps 743 mmHg 89%
    04:00 +11°C° 0.4 mm 3 mps 743 mmHg 90%
    05:00 +11°C° 0.4 mm 3 mps 742 mmHg 90%
    06:00 +11°C° 0 mm 3 mps 742 mmHg 89%
    07:00 +12°C° 0 mm 4 mps 742 mmHg 87%
    08:00 +12°C° 0 mm 4 mps 742 mmHg 86%
    09:00 +12°C° 0.5 mm 5 mps 742 mmHg 86%
    10:00 +12°C° 0.5 mm 5 mps 742 mmHg 86%
    11:00 +11°C° 0.5 mm 6 mps 742 mmHg 86%
    12:00 +13°C° 0 mm 6 mps 742 mmHg 83%
    13:00 +14°C° 0 mm 7 mps 742 mmHg 80%
    14:00 +14°C° 0 mm 7 mps 742 mmHg 76%
    15:00 +14°C° 0 mm 6 mps 742 mmHg 78%
    16:00 +13°C° 0 mm 6 mps 742 mmHg 79%
    17:00 +13°C° 0 mm 6 mps 742 mmHg 80%
    18:00 +13°C° 0 mm 5 mps 742 mmHg 80%
    19:00 +13°C° 0 mm 5 mps 742 mmHg 80%
    20:00 +12°C° 0 mm 5 mps 742 mmHg 80%
    21:00 +13°C° 0 mm 4 mps 742 mmHg 78%
    22:00 +13°C° 0 mm 4 mps 742 mmHg 75%
    23:00 +13°C° 0 mm 4 mps 742 mmHg 72%

    26 September, Thursday

    Time Temperature Precipitation Wind Pressure Humidity
    00:00 +13°C° 0 mm 4 mps 742 mmHg 72%
    01:00 +13°C° 0 mm 5 mps 741 mmHg 72%
    02:00 +13°C° 0 mm 6 mps 741 mmHg 72%
    03:00 +13°C° 0 mm 6 mps 741 mmHg 72%
    04:00 +13°C° 0 mm 6 mps 741 mmHg 72%
    05:00 +13°C° 0 mm 6 mps 740 mmHg 72%
    06:00 +13°C° 0 mm 5 mps 741 mmHg 74%
    07:00 +13°C° 0 mm 5 mps 742 mmHg 75%
    08:00 +13°C° 0 mm 5 mps 742 mmHg 77%
    09:00 +13°C° 0 mm 4 mps 743 mmHg 76%
    10:00 +13°C° 0 mm 3 mps 743 mmHg 76%
    11:00 +15°C° 0 mm 1 mps 744 mmHg 76%
    12:00 +15°C° 0 mm 2 mps 744 mmHg 74%
    13:00 +16°C° 0 mm 2 mps 744 mmHg 71%
    14:00 +16°C° 0 mm 2 mps 744 mmHg 68%
    15:00 +15°C° 0 mm 2 mps 745 mmHg 73%
    16:00 +15°C° 0 mm 2 mps 745 mmHg 77%
    17:00 +14°C° 0 mm 2 mps 745 mmHg 82%
    18:00 +12°C° 0 mm 3 mps 745 mmHg 83%
    19:00 +12°C° 0 mm 3 mps 746 mmHg 84%
    20:00 +11°C° 0 mm 4 mps 746 mmHg 86%
    21:00 +11°C° 0 mm 4 mps 746 mmHg 83%
    22:00 +12°C° 0 mm 5 mps 746 mmHg 80%
    23:00 +11°C° 0 mm 6 mps 746 mmHg 77%

    27 September, Friday

    Time Temperature Precipitation Wind Pressure Humidity
    00:00 +11°C° 0 mm 6 mps 746 mmHg 76%
    01:00 +11°C° 0 mm 6 mps 746 mmHg 75%
    02:00 +11°C° 0 mm 7 mps 746 mmHg 74%
    03:00 +11°C° 0 mm 6 mps 747 mmHg 74%
    04:00 +11°C° 0 mm 6 mps 747 mmHg 74%
    05:00 +11°C° 0 mm 6 mps 747 mmHg 74%
    06:00 +12°C° 0 mm 5 mps 748 mmHg 75%
    07:00 +12°C° 0 mm 5 mps 748 mmHg 75%
    08:00 +12°C° 0 mm 4 mps 749 mmHg 76%
    09:00 +13°C° 0 mm 5 mps 749 mmHg 73%
    10:00 +14°C° 0 mm 5 mps 750 mmHg 71%
    11:00 +14°C° 0 mm 6 mps 750 mmHg 68%
    12:00 +15°C° 0 mm 5 mps 750 mmHg 68%
    13:00 +15°C° 0 mm 4 mps 751 mmHg 67%
    14:00 +16°C° 0 mm 3 mps 751 mmHg 67%
    15:00 +14°C° 0 mm 3 mps 751 mmHg 70%
    16:00 +14°C° 0 mm 3 mps 752 mmHg 72%
    17:00 +13°C° 0 mm 3 mps 752 mmHg 75%
    18:00 +12°C° 0 mm 3 mps 752 mmHg 77%
    19:00 +12°C° 0 mm 2 mps 753 mmHg 79%
    20:00 +10°C° 0 mm 2 mps 753 mmHg 81%
    21:00 +10°C° 0 mm 3 mps 753 mmHg 81%
    22:00 +10°C° 0 mm 3 mps 754 mmHg 82%
    23:00 +10°C° 0 mm 3 mps 754 mmHg 83%

    28 September, Saturday

    Time Temperature Precipitation Wind Pressure Humidity
    00:00 +10°C° 0 mm 4 mps 754 mmHg 83%
    01:00 +10°C° 0 mm 4 mps 754 mmHg 83%
    02:00 +8°C° 0 mm 4 mps 754 mmHg 84%
    03:00 +8°C° 0 mm 4 mps 754 mmHg 83%
    04:00 +8°C° 0 mm 4 mps 754 mmHg 83%
    05:00 +8°C° 0 mm 4 mps 754 mmHg 82%
    06:00 +8°C° 0 mm 4 mps 754 mmHg 82%
    07:00 +8°C° 0 mm 4 mps 754 mmHg 81%
    08:00 +8°C° 0 mm 4 mps 755 mmHg 81%
    09:00 +9°C° 0 mm 5 mps 755 mmHg 75%
    10:00 +10°C° 0 mm 5 mps 755 mmHg 70%
    11:00 +12°C° 0 mm 5 mps 755 mmHg 65%
    12:00 +12°C° 0 mm 5 mps 755 mmHg 63%
    13:00 +11°C° 0 mm 6 mps 755 mmHg 62%
    14:00 +11°C° 0 mm 6 mps 755 mmHg 60%
    15:00 +10°C° 0 mm 5 mps 756 mmHg 62%
    16:00 +10°C° 0 mm 5 mps 756 mmHg 64%
    17:00 +9°C° 0 mm 5 mps 756 mmHg 67%
    18:00 +8°C° 0 mm 5 mps 756 mmHg 68%
    19:00 +7°C° 0 mm 5 mps 757 mmHg 69%
    20:00 +6°C° 0 mm 5 mps 757 mmHg 71%
    21:00 +6°C° 0 mm 5 mps 757 mmHg 71%
    22:00 +6°C° 0 mm 5 mps 757 mmHg 71%
    23:00 +6°C° 0 mm 5 mps 757 mmHg 72%
    Show more